Location: Krasnoyarskiy Pitomnik
(51.1333°N, 71.6167°E)
Time: 15:37:08
(UTC+00:00)

Altair - All Passes

Search period start: 13 April 2024 00:00
Search period end: 23 April 2024 00:00
Orbit: 1502 x 1682 km, 47.2° (Epoch: 12 April)

Date Brightness Start Highest point End Pass type
(mag) Time Alt. Az. Time Alt. Az. Time Alt. Az.
13 Apr - 14:29:17 10° S 14:36:36 24° SE 14:43:45 10° E visible
13 Apr - 16:30:21 10° SW 16:39:49 53° SSE 16:48:58 10° E visible
13 Apr - 18:34:17 10° W 18:43:59 71° S 18:53:20 10° E visible
13 Apr - 20:38:54 10° W 20:48:11 57° SSW 20:57:09 10° SE visible
13 Apr - 22:44:04 10° W 22:51:24 26° SW 22:58:35 10° S visible
14 Apr - 14:04:32 10° S 14:11:32 22° SE 14:18:24 10° E daylight
14 Apr - 16:05:14 10° SW 16:14:40 51° SSE 16:23:47 10° E visible
14 Apr - 18:09:04 10° WSW 18:18:48 71° S 18:28:10 10° E visible
14 Apr - 20:13:40 10° W 20:23:02 59° SSW 20:32:04 10° SE visible
14 Apr - 22:18:44 10° W 22:26:21 29° SW 22:33:48 10° SSE visible
15 Apr - 13:39:50 10° S 13:46:28 20° SE 13:52:59 10° E daylight
15 Apr - 15:40:08 10° SW 15:49:31 49° SSE 15:58:35 10° E visible
15 Apr - 17:43:50 10° WSW 17:53:36 71° S 18:03:00 10° E visible
15 Apr - 19:48:26 10° W 19:57:53 61° SSW 20:06:59 10° ESE visible
15 Apr - 21:53:26 10° W 22:01:17 31° SW 22:08:58 10° SSE visible
16 Apr - 13:15:12 10° SSE 13:21:25 19° SE 13:27:32 10° E daylight
16 Apr - 15:15:02 10° SW 15:24:22 47° SSE 15:33:23 10° E visible
16 Apr - 17:18:38 10° WSW 17:28:25 70° S 17:37:50 10° E visible
16 Apr - 19:23:12 10° W 19:32:43 63° SSW 19:41:53 10° ESE visible
16 Apr - 21:28:08 10° W 21:36:13 33° SW 21:44:06 10° SSE visible
17 Apr - 12:50:39 10° SSE 12:56:23 17° SE 13:02:01 10° E daylight
17 Apr - 14:49:58 10° SW 14:59:13 44° SSE 15:08:11 10° E visible
17 Apr - 16:53:24 10° WSW 17:03:13 69° S 17:12:40 10° E visible
17 Apr - 18:57:58 10° W 19:07:33 64° SSW 19:16:46 10° ESE visible
17 Apr - 21:02:49 10° W 21:11:08 35° SW 21:19:13 10° SSE visible
18 Apr - 12:26:11 10° SSE 12:31:20 15° SE 12:36:25 10° E daylight
18 Apr - 14:24:55 10° SSW 14:34:05 42° SSE 14:42:59 10° E daylight
18 Apr - 16:28:12 10° WSW 16:38:02 68° S 16:47:30 10° E visible
18 Apr - 18:32:43 10° W 18:42:23 66° SSW 18:51:39 10° ESE visible
18 Apr - 20:37:33 10° W 20:46:03 37° SW 20:54:18 10° SSE visible
18 Apr - 22:45:53 10° WSW 22:48:24 11° WSW 22:50:54 10° SW visible
19 Apr - 12:01:52 10° SSE 12:06:18 14° SE 12:10:42 10° E daylight
19 Apr - 13:59:54 10° SSW 14:08:57 40° SE 14:17:46 10° E daylight
19 Apr - 16:02:59 10° WSW 16:12:50 67° SSE 16:22:19 10° E visible
19 Apr - 18:07:29 10° W 18:17:12 67° SSW 18:26:31 10° ESE visible
19 Apr - 20:12:16 10° W 20:20:58 40° SW 20:29:22 10° SSE visible
19 Apr - 22:19:42 10° W 22:23:25 13° SW 22:27:04 10° SSW visible
20 Apr - 11:37:47 10° SE 11:41:17 12° ESE 11:44:46 10° ESE daylight
20 Apr - 13:34:54 10° SSW 13:43:50 38° SE 13:52:32 10° E daylight
20 Apr - 15:37:47 10° WSW 15:47:38 66° SSE 15:57:09 10° E visible
20 Apr - 17:42:15 10° W 17:52:01 69° S 18:01:23 10° ESE visible
20 Apr - 19:47:01 10° W 19:55:52 42° SW 20:04:24 10° SSE visible
20 Apr - 21:53:52 10° W 21:58:25 15° SW 22:02:55 10° SSW visible
21 Apr - 11:14:10 10° SE 11:16:16 11° ESE 11:18:22 10° ESE daylight
21 Apr - 13:09:54 10° SSW 13:18:43 36° SE 13:27:18 10° E daylight
21 Apr - 15:12:35 10° WSW 15:22:27 64° SSE 15:31:58 10° E visible
21 Apr - 17:17:00 10° W 17:26:50 70° S 17:36:14 10° ESE visible
21 Apr - 19:21:46 10° W 19:30:45 44° SSW 19:39:25 10° SE visible
21 Apr - 21:28:11 10° W 21:33:24 16° SW 21:38:33 10° SSW visible
22 Apr - 12:44:57 10° SSW 12:53:36 34° SE 13:02:03 10° E daylight
22 Apr - 14:47:24 10° WSW 14:57:15 63° SSE 15:06:47 10° E visible
22 Apr - 16:51:46 10° W 17:01:38 70° S 17:11:06 10° ESE visible
22 Apr - 18:56:30 10° W 19:05:38 47° SSW 19:14:25 10° SE visible
22 Apr - 21:02:35 10° W 21:08:24 18° SW 21:14:05 10° SSW visible
